• In Deutschland
  • Länderverzeichnis
  • Für 7 Tage
  • Wassertemperatur
  • Satellitenkarten
  • Wetterkarte
  • Widgets
  • user-avatar
    Anmelden

    Stündliche Wetter Eppingen

    Heute, 17 Oktober, Dienstag

    Zeit Temperatur Niederschläge Wind Luftdruck Luftfeuchtigkeit
    00:00 +15°C° 0 mm 1 m/S 750 mmHg 74%
    01:00 +16°C° 0 mm 2 m/S 750 mmHg 71%
    02:00 +15°C° 0 mm 2 m/S 750 mmHg 71%
    03:00 +15°C° 0 mm 1 m/S 750 mmHg 71%
    04:00 +14°C° 0 mm 1 m/S 750 mmHg 70%
    05:00 +14°C° 0 mm 1 m/S 750 mmHg 70%
    06:00 +14°C° 0 mm 1 m/S 750 mmHg 70%
    07:00 +12°C° 0 mm 1 m/S 750 mmHg 65%
    08:00 +15°C° 0 mm 1 m/S 750 mmHg 60%
    09:00 +18°C° 0 mm 1 m/S 750 mmHg 56%
    10:00 +20°C° 0 mm 1 m/S 749 mmHg 51%
    11:00 +21°C° 0 mm 1 m/S 749 mmHg 48%
    12:00 +22°C° 0 mm 1 m/S 749 mmHg 45%
    13:00 +21°C° 0 mm 0 m/S 748 mmHg 42%
    14:00 +21°C° 0 mm 0 m/S 748 mmHg 45%
    15:00 +21°C° 0 mm 0 m/S 747 mmHg 49%
    16:00 +21°C° 0 mm 0 m/S 747 mmHg 52%
    17:00 +19°C° 0 mm 0 m/S 747 mmHg 56%
    18:00 +17°C° 0 mm 0 m/S 746 mmHg 60%
    19:00 +14°C° 0 mm 0 m/S 746 mmHg 64%
    20:00 +14°C° 0 mm 0 m/S 746 mmHg 65%
    21:00 +15°C° 0 mm 1 m/S 746 mmHg 66%
    22:00 +14°C° 0 mm 1 m/S 746 mmHg 67%
    23:00 +14°C° 0 mm 1 m/S 746 mmHg 67%

    Morgen, 18 Oktober, Mittwoch

    Zeit Temperatur Niederschläge Wind Luftdruck Luftfeuchtigkeit
    00:00 +14°C° 0 mm 1 m/S 746 mmHg 68%
    01:00 +14°C° 0 mm 1 m/S 746 mmHg 68%
    02:00 +13°C° 0 mm 1 m/S 745 mmHg 68%
    03:00 +13°C° 0 mm 1 m/S 745 mmHg 69%
    04:00 +13°C° 0 mm 1 m/S 745 mmHg 69%
    05:00 +13°C° 0 mm 1 m/S 745 mmHg 68%
    06:00 +12°C° 0 mm 1 m/S 745 mmHg 67%
    07:00 +12°C° 0 mm 1 m/S 744 mmHg 67%
    08:00 +14°C° 0 mm 1 m/S 744 mmHg 61%
    09:00 +16°C° 0 mm 1 m/S 744 mmHg 56%
    10:00 +19°C° 0 mm 1 m/S 744 mmHg 51%
    11:00 +20°C° 0 mm 1 m/S 744 mmHg 48%
    12:00 +22°C° 0 mm 1 m/S 744 mmHg 45%
    13:00 +23°C° 0 mm 1 m/S 744 mmHg 42%
    14:00 +22°C° 0 mm 1 m/S 743 mmHg 46%
    15:00 +22°C° 0 mm 1 m/S 743 mmHg 49%
    16:00 +22°C° 0 mm 1 m/S 743 mmHg 53%
    17:00 +20°C° 0 mm 1 m/S 743 mmHg 57%
    18:00 +18°C° 0 mm 1 m/S 743 mmHg 60%
    19:00 +15°C° 0 mm 1 m/S 743 mmHg 64%
    20:00 +15°C° 0 mm 1 m/S 743 mmHg 66%
    21:00 +14°C° 0 mm 1 m/S 743 mmHg 67%
    22:00 +14°C° 0 mm 1 m/S 743 mmHg 68%
    23:00 +13°C° 0 mm 1 m/S 743 mmHg 70%

    übermorgen, 19 Oktober, Donnerstag

    Zeit Temperatur Niederschläge Wind Luftdruck Luftfeuchtigkeit
    00:00 +13°C° 0 mm 1 m/S 743 mmHg 71%
    01:00 +13°C° 0 mm 1 m/S 743 mmHg 72%
    02:00 +12°C° 0 mm 1 m/S 743 mmHg 73%
    03:00 +12°C° 0 mm 1 m/S 742 mmHg 73%
    04:00 +12°C° 0 mm 1 m/S 742 mmHg 74%
    05:00 +12°C° 0 mm 1 m/S 742 mmHg 74%
    06:00 +12°C° 0 mm 1 m/S 742 mmHg 74%
    07:00 +11°C° 0 mm 1 m/S 742 mmHg 74%
    08:00 +13°C° 0 mm 1 m/S 742 mmHg 69%
    09:00 +15°C° 0 mm 1 m/S 742 mmHg 64%
    10:00 +18°C° 0 mm 1 m/S 742 mmHg 59%
    11:00 +19°C° 0 mm 1 m/S 742 mmHg 56%
    12:00 +20°C° 0 mm 2 m/S 742 mmHg 52%
    13:00 +21°C° 0 mm 2 m/S 742 mmHg 49%
    14:00 +22°C° 0 mm 1 m/S 742 mmHg 52%
    15:00 +22°C° 0 mm 1 m/S 741 mmHg 55%
    16:00 +22°C° 0 mm 1 m/S 741 mmHg 58%
    17:00 +20°C° 0 mm 1 m/S 741 mmHg 64%
    18:00 +18°C° 0 mm 1 m/S 741 mmHg 70%
    19:00 +15°C° 0 mm 1 m/S 741 mmHg 76%
    20:00 +14°C° 0 mm 1 m/S 741 mmHg 78%
    21:00 +14°C° 0 mm 1 m/S 742 mmHg 79%
    22:00 +13°C° 0 mm 1 m/S 742 mmHg 81%
    23:00 +13°C° 0 mm 1 m/S 742 mmHg 82%

    20 Oktober, Freitag

    Zeit Temperatur Niederschläge Wind Luftdruck Luftfeuchtigkeit
    00:00 +13°C° 0 mm 1 m/S 742 mmHg 83%
    01:00 +12°C° 0 mm 1 m/S 742 mmHg 84%
    02:00 +12°C° 0 mm 1 m/S 742 mmHg 85%
    03:00 +12°C° 0 mm 1 m/S 742 mmHg 85%
    04:00 +12°C° 0 mm 1 m/S 742 mmHg 86%
    05:00 +11°C° 0 mm 1 m/S 742 mmHg 86%
    06:00 +11°C° 0 mm 1 m/S 742 mmHg 85%
    07:00 +11°C° 0 mm 1 m/S 742 mmHg 85%
    08:00 +13°C° 0 mm 1 m/S 743 mmHg 78%
    09:00 +15°C° 0 mm 1 m/S 743 mmHg 71%
    10:00 +18°C° 0 mm 1 m/S 743 mmHg 64%
    11:00 +19°C° 0 mm 1 m/S 743 mmHg 60%
    12:00 +21°C° 0 mm 1 m/S 743 mmHg 55%
    13:00 +21°C° 0 mm 2 m/S 743 mmHg 50%
    14:00 +22°C° 0 mm 1 m/S 743 mmHg 53%
    15:00 +22°C° 0 mm 1 m/S 743 mmHg 55%
    16:00 +22°C° 0 mm 1 m/S 743 mmHg 57%
    17:00 +20°C° 0 mm 1 m/S 743 mmHg 62%
    18:00 +18°C° 0 mm 1 m/S 743 mmHg 66%
    19:00 +16°C° 0 mm 1 m/S 744 mmHg 71%
    20:00 +15°C° 0 mm 1 m/S 744 mmHg 73%
    21:00 +15°C° 0 mm 1 m/S 744 mmHg 75%
    22:00 +14°C° 0 mm 1 m/S 744 mmHg 77%
    23:00 +14°C° 0 mm 1 m/S 744 mmHg 78%

    21 Oktober, Samstag

    Zeit Temperatur Niederschläge Wind Luftdruck Luftfeuchtigkeit
    00:00 +14°C° 0 mm 1 m/S 744 mmHg 79%
    01:00 +14°C° 0 mm 1 m/S 744 mmHg 79%
    02:00 +14°C° 0 mm 2 m/S 744 mmHg 78%
    03:00 +14°C° 0 mm 2 m/S 744 mmHg 76%
    04:00 +14°C° 0 mm 2 m/S 743 mmHg 75%
    05:00 +14°C° 0 mm 2 m/S 743 mmHg 74%
    06:00 +14°C° 0 mm 2 m/S 743 mmHg 74%
    07:00 +14°C° 0 mm 2 m/S 743 mmHg 73%
    08:00 +16°C° 0 mm 2 m/S 743 mmHg 69%
    09:00 +17°C° 0 mm 2 m/S 743 mmHg 64%
    10:00 +19°C° 0 mm 3 m/S 743 mmHg 59%
    11:00 +20°C° 0 mm 3 m/S 743 mmHg 57%
    12:00 +20°C° 0 mm 3 m/S 743 mmHg 56%
    13:00 +21°C° 0 mm 4 m/S 743 mmHg 54%
    14:00 +20°C° 0,1 mm 4 m/S 743 mmHg 61%
    15:00 +19°C° 0,1 mm 3 m/S 743 mmHg 67%
    16:00 +18°C° 0,1 mm 3 m/S 744 mmHg 74%
    17:00 +17°C° 0,2 mm 3 m/S 744 mmHg 78%
    18:00 +16°C° 0,2 mm 3 m/S 744 mmHg 83%
    19:00 +14°C° 0,2 mm 3 m/S 745 mmHg 87%
    20:00 +14°C° 0,4 mm 3 m/S 745 mmHg 87%
    21:00 +13°C° 0,4 mm 3 m/S 745 mmHg 86%
    22:00 +14°C° 0,4 mm 2 m/S 745 mmHg 85%
    23:00 +13°C° 0,1 mm 3 m/S 745 mmHg 85%

    22 Oktober, Sonntag

    Zeit Temperatur Niederschläge Wind Luftdruck Luftfeuchtigkeit
    00:00 +12°C° 0,1 mm 3 m/S 745 mmHg 85%
    01:00 +12°C° 0,1 mm 3 m/S 745 mmHg 85%
    02:00 +12°C° 0,4 mm 3 m/S 746 mmHg 86%
    03:00 +11°C° 0,4 mm 3 m/S 746 mmHg 87%
    04:00 +11°C° 0,4 mm 3 m/S 746 mmHg 88%
    05:00 +11°C° 0,2 mm 3 m/S 746 mmHg 88%
    06:00 +10°C° 0,2 mm 3 m/S 746 mmHg 87%
    07:00 +10°C° 0,2 mm 3 m/S 746 mmHg 87%
    08:00 +10°C° 0,1 mm 4 m/S 747 mmHg 85%
    09:00 +11°C° 0,1 mm 4 m/S 747 mmHg 82%
    10:00 +11°C° 0,1 mm 4 m/S 747 mmHg 79%
    11:00 +11°C° 0 mm 4 m/S 747 mmHg 75%
    12:00 +12°C° 0 mm 5 m/S 747 mmHg 72%
    13:00 +12°C° 0 mm 5 m/S 748 mmHg 68%
    14:00 +12°C° 0 mm 5 m/S 748 mmHg 68%
    15:00 +12°C° 0 mm 4 m/S 748 mmHg 67%
    16:00 +12°C° 0 mm 4 m/S 748 mmHg 67%
    17:00 +11°C° 0 mm 4 m/S 748 mmHg 70%
    18:00 +10°C° 0 mm 4 m/S 749 mmHg 74%
    19:00 +9°C° 0 mm 3 m/S 749 mmHg 77%
    20:00 +9°C° 0 mm 3 m/S 750 mmHg 78%
    21:00 +8°C° 0 mm 3 m/S 750 mmHg 80%
    22:00 +8°C° 0 mm 3 m/S 750 mmHg 81%
    23:00 +8°C° 0 mm 3 m/S 751 mmHg 82%
    Mehr zeigen